Location: Little Chesterford
(52.0500°N, 0.1833°E)
Time: 19:42:12
(UTC+00:00)

Cosmos 1733 Rocket - Pass Details

Date: 26 September 2023
Orbit: 602 x 624 km, 82.5° (Epoch: 08 December)

Event Time Altitude Azimuth Distance (km) Brightness Sun altitude
Exits shadow 20:01:02 36° 59° (ENE) 981 3.8 -20.5°
Drops below altitude 10° 20:04:11 10° 23° (NNE) 1,980 5.7 -20.9°
Sets 20:06:29 0° 16° (NNE) 2,886 6.6 -21.3°
